EXPRESS-AM8

Last updated on Mon Oct 20 2025 00:02:48 GMT+0000 (Coordinated Universal Time)

1 40895U 15048A 25291.69366466 -.00000116 00000+0 00000+0 0 9996 2 40895 0.0220 233.6426 0000187 259.5278 129.9975 1.00272383 36920
UTC large
Height (km)
Speed (km/s)
/
Latitude / Longitude
Inclination (degrees)
Orbital Period (minutes)
Azimuth
Elevation
Range (km)
Doppler Factor

Next 0 passes for location: London (51.5072 / 0.1276)

Sorry there are no passes over London.